Weather in Troitsk

Russia / Altai Krai     52°53′12″N   83°33′15″E
temp.,
°C
wind,
m/s
gust,
m/s
humid.,
%
clouds,
%
prec.,
mm/h
press.,
hPa
HPBL,
m
8 march, mon
mon801:00−6s3496100 0.0 102152
04:00−8s349586 0.0 101939
07:00−8s349283 0.0 101853
10:00−6s3692100 0.0 1014146
13:00−1ssw61677100 0.0 1012874
16:00+1sw91976100 0.0 1011806
19:000sw81882100 0.0 1011832
22:00+1sw101985100 0.0 1013826
9 march, tue
tue901:00−2wnw81290100 0.7 1018555
04:00−11w5109081 0.0 1024251
07:00−13sw489287 0.0 1028233
10:00−13sw58897 0.0 1030262
13:00−9sw47889 0.0 1029373
16:00−8ssw368622 0.0 1027418
19:00−11s349225 0.0 102634
22:00−12s348996 0.0 102544
10 march, wed
wed1001:00−11ssw239296 0.0 102328
04:00−11ssw239653 0.0 102122
07:00−12ssw239760 0.0 102122
10:00−9ssw239664 0.0 1020114
13:00−2s249368 0.1 1018332
16:00−1se249896 0.0 1015229
19:00−2ese379498 0.0 1011141
22:00−3sse41189100 0.0 1008219
11 march, thu
thu1101:00−1ssw52189100 0.1 1006718
04:00+2sw91796100 0.2 1005614
07:00+1wsw81496100 0.7 1009784
10:00−6wsw61186100 0.0 1014514
13:00−5wsw61185100 0.0 1017557
16:00−4sw71186100 0.0 1020810
19:00−5sw51188100 0.0 1021374
22:00−8ssw4108945 0.0 1023222
12 march, fri
fri1201:00−7s4138753 0.0 1019326
04:00−6s6178596 0.0 1016555
07:00−4sw8149498 0.3 1016759
10:00−6wsw71292100 1.1 10171184
13:00−7wsw71270100 1.3 10191143
16:00−8wsw6107221 0.0 1020972
19:00−12w378411 0.0 1021153
22:00−15wsw349131 0.0 102378